When you browse on this site, cookies collect data to enhance your experience and personalize the content and advertising you see.
Visit our Privacy Policy to learn more. By continuing to use the site, you agree to this use of cookies and data.
  • In Latvia
  • List of Countries
  • For 7 days
  • Water Temperature
  • Satellite Maps
  • Weather Map
  • Weather Widgets
  • user-avatar
    Login

    Hourly Weather Ghazni

    Today, 22 May, Wednesday

    Time Temperature Precipitation Wind Pressure Humidity
    00:00 +17°C° 0 mm 2 mps 589 mmHg 42%
    01:00 +18°C° 0 mm 1 mps 588 mmHg 44%
    02:00 +15°C° 0 mm 0 mps 588 mmHg 47%
    03:00 +15°C° 0 mm 0 mps 588 mmHg 47%
    04:00 +16°C° 0 mm 1 mps 588 mmHg 48%
    05:00 +15°C° 0 mm 1 mps 587 mmHg 51%
    06:00 +16°C° 0 mm 1 mps 587 mmHg 48%
    07:00 +16°C° 0 mm 1 mps 588 mmHg 45%
    08:00 +18°C° 0 mm 1 mps 588 mmHg 42%
    09:00 +19°C° 0 mm 1 mps 588 mmHg 39%
    10:00 +20°C° 0 mm 1 mps 588 mmHg 36%
    11:00 +20°C° 0 mm 2 mps 588 mmHg 33%
    12:00 +21°C° 0 mm 2 mps 588 mmHg 31%
    13:00 +22°C° 0 mm 3 mps 589 mmHg 30%
    14:00 +22°C° 0 mm 3 mps 589 mmHg 28%
    15:00 +22°C° 0 mm 3 mps 588 mmHg 28%
    16:00 +22°C° 0 mm 3 mps 588 mmHg 29%
    17:00 +22°C° 0 mm 4 mps 588 mmHg 29%
    18:00 +22°C° 0.1 mm 3 mps 588 mmHg 31%
    19:00 +21°C° 0.1 mm 3 mps 588 mmHg 33%
    20:00 +21°C° 0.1 mm 2 mps 588 mmHg 34%
    21:00 +20°C° 0 mm 2 mps 588 mmHg 38%
    22:00 +19°C° 0 mm 2 mps 588 mmHg 42%
    23:00 +19°C° 0 mm 3 mps 588 mmHg 46%

    Tomorrow, 23 May, Thursday

    Time Temperature Precipitation Wind Pressure Humidity
    00:00 +18°C° 0.2 mm 2 mps 587 mmHg 49%
    01:00 +17°C° 0.2 mm 2 mps 586 mmHg 53%
    02:00 +16°C° 0.2 mm 2 mps 586 mmHg 56%
    03:00 +16°C° 0 mm 2 mps 586 mmHg 57%
    04:00 +15°C° 0 mm 2 mps 585 mmHg 58%
    05:00 +15°C° 0 mm 2 mps 585 mmHg 59%
    06:00 +15°C° 0 mm 2 mps 585 mmHg 57%
    07:00 +16°C° 0 mm 1 mps 586 mmHg 56%
    08:00 +16°C° 0 mm 1 mps 586 mmHg 54%
    09:00 +17°C° 0 mm 2 mps 586 mmHg 50%
    10:00 +18°C° 0 mm 2 mps 586 mmHg 47%
    11:00 +19°C° 0 mm 2 mps 587 mmHg 43%
    12:00 +21°C° 0.1 mm 3 mps 587 mmHg 38%
    13:00 +22°C° 0.1 mm 4 mps 587 mmHg 33%
    14:00 +23°C° 0.1 mm 5 mps 587 mmHg 28%
    15:00 +24°C° 0 mm 6 mps 587 mmHg 26%
    16:00 +24°C° 0 mm 8 mps 587 mmHg 25%
    17:00 +24°C° 0 mm 9 mps 587 mmHg 24%
    18:00 +23°C° 0 mm 8 mps 587 mmHg 25%
    19:00 +22°C° 0 mm 8 mps 587 mmHg 27%
    20:00 +21°C° 0 mm 7 mps 586 mmHg 29%
    21:00 +20°C° 0 mm 6 mps 587 mmHg 31%
    22:00 +20°C° 0 mm 5 mps 587 mmHg 33%
    23:00 +19°C° 0 mm 4 mps 587 mmHg 35%

    Day after tomorrow, 24 May, Friday

    Time Temperature Precipitation Wind Pressure Humidity
    00:00 +18°C° 0 mm 4 mps 586 mmHg 37%
    01:00 +17°C° 0 mm 3 mps 586 mmHg 40%
    02:00 +17°C° 0 mm 3 mps 586 mmHg 43%
    03:00 +16°C° 0 mm 3 mps 585 mmHg 45%
    04:00 +16°C° 0 mm 3 mps 585 mmHg 46%
    05:00 +14°C° 0 mm 3 mps 585 mmHg 48%
    06:00 +16°C° 0 mm 3 mps 586 mmHg 45%
    07:00 +17°C° 0 mm 4 mps 586 mmHg 41%
    08:00 +17°C° 0 mm 5 mps 587 mmHg 38%
    09:00 +19°C° 0 mm 5 mps 587 mmHg 33%
    10:00 +20°C° 0 mm 5 mps 588 mmHg 28%
    11:00 +21°C° 0 mm 5 mps 588 mmHg 23%
    12:00 +22°C° 0 mm 5 mps 589 mmHg 21%
    13:00 +23°C° 0 mm 5 mps 589 mmHg 18%
    14:00 +25°C° 0 mm 5 mps 589 mmHg 16%
    15:00 +26°C° 0 mm 5 mps 589 mmHg 16%
    16:00 +26°C° 0 mm 4 mps 589 mmHg 15%
    17:00 +26°C° 0 mm 4 mps 589 mmHg 15%
    18:00 +25°C° 0 mm 4 mps 588 mmHg 17%
    19:00 +23°C° 0 mm 4 mps 588 mmHg 19%
    20:00 +22°C° 0 mm 3 mps 588 mmHg 21%
    21:00 +21°C° 0 mm 3 mps 589 mmHg 24%
    22:00 +20°C° 0 mm 3 mps 589 mmHg 26%
    23:00 +19°C° 0 mm 2 mps 589 mmHg 28%

    25 May, Saturday

    Time Temperature Precipitation Wind Pressure Humidity
    00:00 +18°C° 0 mm 2 mps 588 mmHg 31%
    01:00 +18°C° 0 mm 2 mps 588 mmHg 33%
    02:00 +17°C° 0 mm 2 mps 587 mmHg 35%
    03:00 +16°C° 0 mm 2 mps 587 mmHg 36%
    04:00 +16°C° 0 mm 2 mps 587 mmHg 38%
    05:00 +15°C° 0 mm 2 mps 586 mmHg 39%
    06:00 +16°C° 0 mm 2 mps 587 mmHg 36%
    07:00 +17°C° 0 mm 2 mps 588 mmHg 33%
    08:00 +19°C° 0 mm 1 mps 588 mmHg 30%
    09:00 +20°C° 0 mm 1 mps 589 mmHg 26%
    10:00 +22°C° 0 mm 1 mps 589 mmHg 22%
    11:00 +23°C° 0 mm 1 mps 589 mmHg 18%
    12:00 +24°C° 0 mm 1 mps 589 mmHg 16%
    13:00 +25°C° 0 mm 1 mps 589 mmHg 15%
    14:00 +26°C° 0 mm 1 mps 589 mmHg 13%
    15:00 +26°C° 0 mm 1 mps 589 mmHg 12%
    16:00 +27°C° 0 mm 1 mps 589 mmHg 12%
    17:00 +27°C° 0 mm 2 mps 589 mmHg 11%
    18:00 +26°C° 0 mm 2 mps 589 mmHg 13%
    19:00 +26°C° 0 mm 2 mps 589 mmHg 15%
    20:00 +25°C° 0 mm 3 mps 589 mmHg 17%
    21:00 +24°C° 0 mm 3 mps 588 mmHg 20%
    22:00 +22°C° 0 mm 4 mps 588 mmHg 23%
    23:00 +20°C° 0 mm 4 mps 588 mmHg 26%

    26 May, Sunday

    Time Temperature Precipitation Wind Pressure Humidity
    00:00 +20°C° 0 mm 4 mps 587 mmHg 28%
    01:00 +19°C° 0 mm 3 mps 587 mmHg 30%
    02:00 +18°C° 0 mm 3 mps 586 mmHg 32%
    03:00 +17°C° 0 mm 3 mps 586 mmHg 33%
    04:00 +17°C° 0 mm 3 mps 586 mmHg 35%
    05:00 +15°C° 0 mm 4 mps 586 mmHg 37%
    06:00 +17°C° 0 mm 4 mps 587 mmHg 35%
    07:00 +16°C° 0 mm 5 mps 587 mmHg 34%
    08:00 +17°C° 0 mm 5 mps 588 mmHg 32%
    09:00 +19°C° 0 mm 5 mps 588 mmHg 27%
    10:00 +20°C° 0 mm 4 mps 588 mmHg 22%
    11:00 +21°C° 0 mm 4 mps 589 mmHg 17%
    12:00 +22°C° 0 mm 3 mps 589 mmHg 15%
    13:00 +24°C° 0 mm 3 mps 589 mmHg 13%
    14:00 +25°C° 0 mm 2 mps 588 mmHg 11%
    15:00 +25°C° 0 mm 2 mps 588 mmHg 11%
    16:00 +25°C° 0 mm 2 mps 588 mmHg 10%
    17:00 +26°C° 0 mm 2 mps 588 mmHg 9%
    18:00 +25°C° 0 mm 2 mps 589 mmHg 11%
    19:00 +24°C° 0 mm 3 mps 589 mmHg 12%
    20:00 +22°C° 0 mm 4 mps 589 mmHg 14%
    21:00 +21°C° 0 mm 4 mps 589 mmHg 15%
    22:00 +20°C° 0 mm 4 mps 589 mmHg 16%
    23:00 +19°C° 0 mm 3 mps 588 mmHg 17%

    27 May, Monday

    Time Temperature Precipitation Wind Pressure Humidity
    00:00 +18°C° 0 mm 3 mps 588 mmHg 19%
    01:00 +17°C° 0 mm 3 mps 588 mmHg 21%
    02:00 +17°C° 0 mm 3 mps 587 mmHg 22%
    03:00 +16°C° 0 mm 3 mps 587 mmHg 24%
    04:00 +15°C° 0 mm 2 mps 587 mmHg 26%
    05:00 +15°C° 0 mm 2 mps 586 mmHg 27%
    06:00 +16°C° 0 mm 2 mps 587 mmHg 25%
    07:00 +17°C° 0 mm 2 mps 588 mmHg 24%
    08:00 +18°C° 0 mm 3 mps 588 mmHg 22%
    09:00 +19°C° 0 mm 2 mps 589 mmHg 19%
    10:00 +21°C° 0 mm 2 mps 589 mmHg 16%
    11:00 +23°C° 0 mm 2 mps 590 mmHg 13%
    12:00 +24°C° 0 mm 2 mps 590 mmHg 12%
    13:00 +25°C° 0 mm 2 mps 590 mmHg 11%
    14:00 +27°C° 0 mm 2 mps 590 mmHg 10%
    15:00 +27°C° 0 mm 2 mps 590 mmHg 9%
    16:00 +27°C° 0 mm 3 mps 590 mmHg 9%
    17:00 +28°C° 0 mm 3 mps 590 mmHg 8%
    18:00 +27°C° 0 mm 3 mps 590 mmHg 9%
    19:00 +26°C° 0 mm 3 mps 590 mmHg 11%
    20:00 +25°C° 0 mm 3 mps 590 mmHg 12%
    21:00 +24°C° 0 mm 3 mps 589 mmHg 13%
    22:00 +22°C° 0 mm 3 mps 589 mmHg 14%
    23:00 +21°C° 0 mm 3 mps 589 mmHg 16%
    Show more